Find Starlink 32033

NORAD ID: 60144 Int'l Des: 2024-120 Owner: SPXS Country: US Constellation: starlink operational
LEOCIRCULAR

Current View

Loading 3D Globe...

About Starlink 32033

Starlink 32033 (NORAD 60144) is a starlink constellation satellite (v2 mini) launched Jun 27, 2024 by SPXS of US. It operates in LEO, CIRCULAR orbit with a mass of 730.00 kg.

About Starlink 32033

Description loading...

Upcoming Passes

Passes for default location (London). Set your location on the main map for personalized predictions.

Altitude History

Loading altitude history...

Two-Line Element Set

1 60144U 24120K 26171.41668980 .00012668 00000-0 38560-3 0 9991
2 60144 53.1583 202.4807 0001237 68.8832 98.4640 15.34385059 5899
Epoch: Jun 20, 2026 • Age: 38 hours

Current Status

Altitude 462.8 km
Velocity 7.64 km/s
Sub-Earth Point 11.87°N, 103.36°E
Launch Date Jun 27, 2024
Age 1.9 years
Type internet

Technical Details

Classification Payload
Mass 730.00 kg
Dry Mass 700.00 kg
Total Mass 730.00 kg
Length 0.30 m
Diameter 4.10 m
Span 29.00 m
Shape Box + pan
Manufacturer SPXS
Bus Type Starlink V2M
Phase Status In Orbit
Owner/State SPXS/US

Most Searched